Regional Weather Roundup
Issued by NWS Huntsville, AL

Home | Current Version | Previous Version | Text Only | Print | Product List | Glossary On
Versions: 1 2 3 4 5 6 7 8 9 10 11 12 13 14 15 16 17 18 19 20 21 22 23 24 25 26 27
000
ASUS44 KHUN 290210
RWRHUN

WEATHER ROUNDUP FOR THE TENNESSEE VALLEY
NATIONAL WEATHER SERVICE HUNTSVILLE AL
900 PM CDT TUE MAR 28 2017

ALZ001>004-290300-
NORTHWEST ALABAMA

CITY           SKY/WX    TMP DP  RH WIND       PRES   REMARKS
COURTLAND HCN    N/A     63 N/A N/A CALM        N/A
RUSSELLVILLE     N/A     61 N/A N/A MISG        N/A
SHOALS AIRPORT CLEAR     62  55  77 CALM      30.00R
SHOALS TVA RES   N/A     63 N/A N/A MISG        N/A
$$

ALZ005>007-016-290300-
NORTH CENTRAL ALABAMA

CITY           SKY/WX    TMP DP  RH WIND       PRES   REMARKS
CULLMAN AG STN   N/A     59 N/A N/A CALM        N/A
DECATUR AP     CLEAR     60  58  92 NE3       30.00R
HUNTSVILLE AP  CLEAR     65  59  81 CALM      30.00R
MERIDIANVILLE  CLEAR     61  54  77 CALM      30.01R
REDSTONE ARSN  CLEAR     66  56  71 NE3       29.99R
VINEMONT AP    FAIR      61  56  84 CALM      30.03R
$$

ALZ008>010-290300-
NORTHEAST ALABAMA

CITY           SKY/WX    TMP DP  RH WIND       PRES   REMARKS
ALBERTVILLE    CLEAR     63  59  88 CALM      30.00R
FORT PAYNE     CLEAR     57  52  82 CALM      30.01R
SCOTTSBORO AP  CLEAR     63  59  88 CALM      30.02R
SCOTTSBORO HCN   N/A     61 N/A N/A MISG        N/A
VALLEY HEAD      N/A     57 N/A N/A MISG        N/A
$$

TNZ076-096-097-290300-
SOUTHEASTERN MIDDLE TENNESSEE

CITY           SKY/WX    TMP DP  RH WIND       PRES   REMARKS
TULLAHOMA      CLEAR     61  52  72 NE3         N/A
WINCHESTER     CLEAR     59  54  82 NE5       30.03R
$$

...SURROUNDING SITES...

CITY           SKY/WX    TMP DP  RH WIND       PRES   REMARKS
ATLANTA        PTCLDY    70  57  63 W3        29.99R
ANNISTON       CLEAR     72  61  68 NE3       30.00R
BIRMINGHAM     PTCLDY    73  61  65 NE5       30.01R
CHATTANOOGA    CLEAR     66  51  58 N8        30.02R
CORINTH        FAIR      66  55  68 CALM      29.97R
DALTON         CLEAR     64  54  68 N7        30.01R
GADSDEN        CLEAR     67  59  75 CALM      30.00R
GOLDEN TRNGL   PTCLDY    72  61  68 E7        29.90R
HALEYVILLE     FAIR      62  59  90 CALM      30.02R
JACKSON TN     CLEAR     64  55  72 NE9       30.00R
MEMPHIS        CLEAR     70  55  59 NE12      29.96R
NASHVILLE      CLEAR     60  54  80 N9        30.05R
OXFORD MS      FAIR      68  57  68 E7        29.96S
ROME           CLEAR     64  54  69 CALM      29.99R
SAVANNAH       CLEAR     59  57  94 CALM      29.98R FOG
TUPELO         CLEAR     71  57  61 NE6       29.95S
TUSCALOOSA     CLEAR     67  65  93 CALM      29.96R
$$

...GULF COAST WEATHER...

CITY           SKY/WX    TMP DP  RH WIND       PRES   REMARKS
GULFPORT       PTCLDY    74  69  85 S10       29.97R
PASCAGOULA     CLEAR     72  66  81 S5        29.99R
MOBILE         CLEAR     70  66  87 S5        30.00R
GULF SHORES    CLOUDY    71  71 100 S9        30.00R
PENSACOLA      MOCLDY    71  68  90 SW7       30.00R
DESTIN         MOCLDY    74  73  97 S3        30.01R
PANAMA CITY    CLEAR     69  67  93 SW8       30.01R
APPALACHICOLA  CLEAR     67  65  93 CALM      30.01S
$$





USA.gov is the U.S. government's official web portal to all federal, state and local government web resources and services.